User: anonymous
Location: Observatorio Las Palmas
(29.0667°N, 110.9333°W)
Time: 03:00:50
(UTC-07:00)
Language:

NOAA 19 - Orbit

View from above orbital plane
View from above orbital plane
View from above satellite
View from above satellite

Ground track
Ground track

The orbit data is extracted from the following two-line orbital elements,

1 33591U 09005A   14250.47373287  .00000293  00000-0  16080-3 0  3556
2 33591 098.9474 195.2817 0013571 248.8407 111.1806 14.11758633287607
Epoch (UTC): 07 September 2014 11:22:10
Eccentricity: 0.0013571
inclination: 98.9474°
perigee height: 843 km
apogee height: 863 km
right ascension of ascending node: 195.2817°
argument of perigee: 248.8407°
revolutions per day: 14.11758633
mean anomaly at epoch: 111.1806°
orbit number at epoch: 28760

The dashed part of the orbit path shows where the satellite is in the earth's shadow,  

DLR